Showing default

XCUBE-1, 62400

Orbit data source: Space-Track

XCUBE-1, 62400 is an American payload satellite in LEO that was launched on Sat, 21 Dec 2024 UTC via an FALCON 9 launch vehicle from the Air Force Western Test Range (AFWTR). Payloads include a variety of satellites, spacecraft, and rockets equipped with specific instruments for various scientific and technological missions. These include communications satellites like Starlink; space stations such as the ISS; scientific satellites like the Hubble; Earth observation satellites from companies like Planet Labs, Umbra, and HawkEye 360; GPS; miniature CubeSats for education and research; and military/defense satellites.

Loading next visibility...
XCUBE-1 details
Identifier
62400, 2024-247Z
Orbit
LEO
Last TLE update14 hours ago
Origin
Flag of USXPL (US)
ManufacturerEXOBOT
MissionOperational Commercial Communications
Bus & MotorCUBESAT 6U, Unknown motor
Mass12 kg wet, 12 kg dry
Launch date (UTC)
2024-12-21 (2 months ago)
Launch vehicle
FALCON 9
Launch site
Air Force Western Test Range (AFWTR)
Object type
Payload
Rocket body
Debris
Shape & HBRBox, 0.05 m
Radar Cross Section0.004 m², Medium (>0.1 m² and < 1m²)

Expand to show TLE details & history

TLE from 14 hours ago
0 XCUBE-1
1 62400U 24247Z   25035.62695677  .00011143  00000-0  52001-3 0  9995
2 62400  44.9949 117.4555 0004804 253.3767 106.6586 15.19995076  7012
Epoch: 2025-02-04T15:02Z
Definitive object data (Epoch: 2025-02-04T15:02:49.064Z)
Latitude-0.00002°
Longitude116.72151°
Altitude506.803 km
Speed7.612 km/s
True Right ascension07h 49m 49s
True Declination0° 00' 00"
Sunlit
Object was in full shadow at TLE epoch
Visualization TLE readout
Latitude-40.61123°
Longitude-7.83407°
Altitude515.087 km
Speed7.608 km/s
Apparent Right ascension21h 14m 38s
Apparent Declination-45° 59' 51"
Sunlit
Object is in daylight
Visualization observer readout
Local Sidereal Time06:46:37
Azimuth244.916° WSW
Elevation-62.507°
Doppler factor1
Orbital elements
Apogee altitude510.768 km
Perigee altitude504.152 km
Semi-major axis6,885.597 km
Eccentricity0.0004804
Inclination44.9949°
RAAN117.4555°
Arg. of periapsis253.3767°
True anomaly106.71133°
Mean anomaly106.6586°
Eccentric anomaly106.68497°
Mean motion3.79866 °/min
BSTAR0.00052001
Orbital period94.77 mins
Loading maneuver chart data...
Loading historical data...
Loading historical data...
Loading historical data...
Loading historical data...
Loading historical data...
Loading historical data...
Loading historical data...

XCUBE-1 Visibility forecast

Observer location: undefined°, undefined

Span
Click to sort rows by Start time (UTC) header in descending order
Start Az.
Max El. time (UTC)
Max El. Az.
Max El.
End time (UTC)
End Az.
7 mins2025-02-05 08:35:43.582Z224.852° SW2025-02-05 08:38:43.582Z176.621° S36.815°2025-02-05 08:42:43.582Z74.062° E
5 mins2025-02-05 10:16:43.582Z285.555° WNW2025-02-05 10:18:43.582Z357.363° N36.555°2025-02-05 10:21:43.582Z60.035° ENE
6 mins2025-02-05 11:55:43.582Z302.614° NW2025-02-05 11:58:43.582Z23.195° NE31.672°2025-02-05 12:01:43.582Z75.105° E
6 mins2025-02-05 13:35:43.582Z294.454° NW2025-02-05 13:37:43.582Z307.92° NW44.732°2025-02-05 13:41:43.582Z113.823° SE
|